Printer-friendly version

IAU Minor Planet Center

Minor Planet Center

MPEC 2006-C33 : 2006 CX

The following Minor Planet Electronic Circular may be linked-to from your own Web pages, but must not otherwise be redistributed electronically.


Read MPEC 2006-C32 Read MPEC 2006-C34


M.P.E.C. 2006-C33                                Issued 2006 Feb. 4, 21:29 UT

     The Minor Planet Electronic Circulars contain information on unusual
         minor planets and routine data on comets.  They are published
   on behalf of Commission 20 of the International Astronomical Union by the
          Minor Planet Center, Smithsonian Astrophysical Observatory,
                          Cambridge, MA 02138, U.S.A.

                  Supported in part by the Brinson Foundation
                  Supported in part by the TABASGO Foundation
             Prepared using the Tamkin Foundation Computer Network

                              MPC@CFA.HARVARD.EDU
          URL http://cfa-www.harvard.edu/iau/mpc.html  ISSN 1523-6714

                                    2006 CX

Observations:
     K06C00X* C2006 02 03.48645 13 55 50.73 +50 07 41.1          19.5 V EC033703
     K06C00X  C2006 02 03.49473 13 55 49.94 +50 07 30.6          18.4 V EC033703
     K06C00X  C2006 02 03.50309 13 55 49.29 +50 07 24.2          19.1 V EC033703
     K06C00X  C2006 02 03.51161 13 55 48.36 +50 07 17.0          19.2 V EC033703
     K06C00X  C2006 02 04.40293 13 54 38.41 +49 53 01.1          18.8 V EC033703
     K06C00X  C2006 02 04.41148 13 54 37.69 +49 52 53.0          18.9 V EC033703
     K06C00X  C2006 02 04.42010 13 54 36.90 +49 52 46.1          18.9 V EC033703
     K06C00X  C2006 02 04.42882 13 54 36.03 +49 52 37.1          18.8 V EC033703
     K06C00X  C2006 02 04.45203 13 54 33.37 +49 52 14.0          18.9 R EC033734
     K06C00X  C2006 02 04.45643 13 54 32.94 +49 52 09.6          18.8 R EC033734
     K06C00X  C2006 02 04.46084 13 54 32.58 +49 52 05.3          19.0 R EC033734
     K06C00X 5C2006 02 04.47755 13 54 31.67 +49 51 50.4          19.0 R EC033673
     K06C00X 5C2006 02 04.48160 13 54 31.30 +49 51 46.3                 EC033673
     K06C00X 5C2006 02 04.48657 13 54 30.81 +49 51 41.7                 EC033673
     K06C00X 5C2006 02 04.49178 13 54 30.28 +49 51 36.7                 EC033673

Observer details:
673 Table Mountain Observatory, Wrightwood.  Observer J. Young.  0.6-m f/16
    Cassegrain + CCD.
703 Catalina Sky Survey.  Observer E. J. Christensen.  Measurers E. C. Beshore,
    E. J. Christensen, G. J. Garradd, A. D. Grauer, R. E. Hill, R. A. Kowalski,
    S. M. Larson, R. H. McNaught.  0.68-m Schmidt + CCD.
734 Farpoint Observatory.  Observer D. Tibbets.  0.7-m reflector + CCD.

Orbital elements:
2006 CX                                                  Earth MOID = 0.2980 AU
Epoch 2006 Mar. 6.0 TT = JDT 2453800.5                  MPC
M  16.68087              (2000.0)            P               Q
n   0.42973235     Peri.  129.51211     -0.67431650     -0.73809368
a   1.7391512      Node     3.18020     +0.48699055     -0.46759142
e   0.3031689      Incl.   24.14548     +0.55510131     -0.48639077
P   2.29           H   18.8           G   0.15           U   9
Residuals in seconds of arc
060203 703  0.5+  1.2+    060204 703  0.2+  0.2-    060204 734  0.3+  0.4-
060203 703  0.1-  1.6-    060204 703  0.3+  0.8+    060204 673  0.2+  0.1+
060203 703  0.7+  0.2-    060204 703  0.2-  0.1-    060204 673  0.3+  0.2-
060203 703  1.0-  0.6+    060204 734  0.1-  0.2-    060204 673  0.2+  0.1-
060204 703  0.5-  0.1+    060204 734  0.3-  0.3-    060204 673  0.2-  0.1-

Ephemeris:
2006 CX                  a,e,i = 1.74, 0.30, 24                  q = 1.2119
Date    TT    R. A. (2000) Decl.     Delta      r     Elong.  Phase     V
2006 02 04    13 55.17   +49 59.4    0.411    1.214   114.4    47.7    19.1
2006 02 14    13 35.35   +46 46.4    0.366    1.223   122.3    43.1    18.7
2006 02 24    13 02.97   +41 42.1    0.327    1.237   133.2    35.7    18.3
2006 03 06    12 22.27   +33 39.6    0.302    1.256   147.0    25.5    17.9
2006 03 16    11 42.44   +22 46.0    0.301    1.280   159.2    16.0    17.6
2006 03 26    11 11.39   +11 18.1    0.329    1.309   158.6    16.1    17.8
2006 04 05    10 51.75   +01 37.8    0.383    1.341   148.3    23.1    18.4
2006 04 15    10 42.32   -05 36.4    0.457    1.376   137.8    29.3    19.1
2006 04 25    10 40.66   -10 51.8    0.544    1.413   129.0    33.6    19.6
2006 05 05    10 44.76   -14 47.0    0.641    1.452   121.8    36.2    20.1
2006 05 15    10 53.08   -17 51.5    0.745    1.493   115.6    37.7    20.5
2006 05 25    11 04.51   -20 24.0    0.854    1.534   110.1    38.3    20.9
2006 06 04    11 18.37   -22 36.7    0.967    1.575   105.2    38.4    21.3
2006 06 14    11 34.13   -24 37.2    1.083    1.616   100.7    38.1    21.5
2006 06 24    11 51.41   -26 29.3    1.202    1.658    96.4    37.5    21.8
2006 07 04    12 10.02   -28 15.8    1.322    1.698    92.2    36.7    22.0

Timothy B. Spahr             (C) Copyright 2006 MPC           M.P.E.C. 2006-C33

Read MPEC 2006-C32 Read MPEC 2006-C34


Our Web policy. Index to the CBAT/MPC/ICQ pages.


Valid HTML 4.01!